TDF 1

导读

TDF 1是法国与联邦德国合作研制的法国首颗电视直播卫星,于1988年10月28日由阿里亚娜火箭发射升空,最终进入距地面36000公里的地球轨道。它属于中等功率直播卫星,采用Ku波段天线、大功率太阳电池阵和大功率行波管技术,旨在为欧洲区域提供广播电视直播服务,推动了早期卫星电视直播技术的商业化应用,是法国航天领域在直播卫星方向的重要探索。

Basic Information
目录编号:
19621
目录名称:
TDF 1
国际标识:
1988-098A
轨道中心:
EARTH
卫星名称:
TDF 1
卫星全名:
--
卫星状态:
在轨 (已飞行13773 天)
发射日期:
1988-10-28 UTC
国别 :
法国 (FR)
星等 :
--
Orbit Information
数据来源 国际轨道数据
星历时间: 2026-07-14T12:37:21+0800
6小时前
查看轨道信息
半长轴: 42470.264km
偏心率: 0.0009004
轨道倾角: 14.714°
近地点辐角 244.775°
升交点赤经 350.135°
平近点角 39.926°
近地点: 36053.886km
远地点: 36130.368km
周期: 1451.734分钟
每日圈数: 0.991917
Detailed Information
使用方式:
暂无
2D Orbit Map
3D Orbit Map
Orbit Altitude Analysis Chart
Orbit Inclination Analysis Chart
Orbit Comprehensive Analysis Chart
View Comprehensive Chart